| time (UTC) | temp C | wind direction | speed KPH | gust KPH | rain 1hr cm | rain 24hr cm | rain mn cm | humidity % | barometer mb |
| 20260505200540 | 17 | 202 | 11.3 | 25.7 | 0.00 | 0.00 | 0.00 | 57 | 1006.5 |
| 20260505200441 | 17 | 202 | 9.7 | 25.7 | 0.00 | 0.00 | 0.00 | 56 | 1006.4 |
| 20260505195538 | 17 | 186 | 6.4 | 17.7 | 0.00 | 0.00 | 0.00 | 56 | 1007.0 |
| 20260505194540 | 17 | 196 | 8.0 | 14.5 | 0.00 | 0.00 | 0.00 | 57 | 1007.0 |
| 20260505193639 | 17 | 215 | 6.4 | 12.9 | 0.00 | 0.00 | 0.00 | 56 | 1006.9 |
| 20260505192640 | 17 | 182 | 8.0 | 12.9 | 0.00 | 0.00 | 0.00 | 57 | 1007.0 |
| 20260505191642 | 17 | 156 | 8.0 | 12.9 | 0.00 | 0.00 | 0.00 | 57 | 1007.2 |
| 20260505190739 | 17 | 181 | 9.7 | 11.3 | 0.00 | 0.00 | 0.00 | 57 | 1007.1 |
| 20260505185838 | 17 | 192 | 8.0 | 12.9 | 0.00 | 0.00 | 0.00 | 57 | 1007.0 |
| 20260505184841 | 17 | 188 | 11.3 | 20.9 | 0.00 | 0.00 | 0.00 | 56 | 1007.1 |
| 20260505183939 | 17 | 181 | 8.0 | 12.9 | 0.00 | 0.00 | 0.00 | 56 | 1007.2 |
| 20260505182038 | 17 | 197 | 8.0 | 9.7 | 0.00 | 0.03 | 0.00 | 57 | 1007.4 |
| 20260505181037 | 17 | 163 | 8.0 | 14.5 | 0.00 | 0.05 | 0.00 | 57 | 1007.6 |
| 20260505180039 | 17 | 148 | 6.4 | 9.7 | 0.00 | 0.05 | 0.00 | 56 | 1007.5 |
| 20260505175138 | 17 | 170 | 11.3 | 19.3 | 0.00 | 0.05 | 0.00 | 57 | 1007.8 |
| 20260505173140 | 17 | 208 | 4.8 | 9.7 | 0.00 | 0.05 | 0.00 | 56 | 1008.1 |
| 20260505172140 | 16 | 189 | 4.8 | 11.3 | 0.00 | 0.05 | 0.00 | 57 | 1008.2 |
| 20260505171238 | 16 | 194 | 6.4 | 11.3 | 0.00 | 0.05 | 0.00 | 57 | 1008.5 |
| 20260505165240 | 17 | 197 | 11.3 | 19.3 | 0.00 | 0.05 | 0.00 | 56 | 1008.4 |
| 20260505163340 | 18 | 195 | 9.7 | 14.5 | 0.00 | 0.05 | 0.00 | 56 | 1009.0 |
| 20260505162339 | 18 | 210 | 8.0 | 16.1 | 0.00 | 0.05 | 0.00 | 56 | 1009.0 |
| 20260505161438 | 17 | 193 | 6.4 | 14.5 | 0.00 | 0.05 | 0.00 | 55 | 1008.9 |
| 20260505160440 | 17 | 209 | 9.7 | 12.9 | 0.00 | 0.05 | 0.00 | 57 | 1008.8 |
| 20260505153356 | 17 | 183 | 12.9 | 22.5 | 0.00 | 0.05 | 0.00 | 57 | 1009.1 |
| 20260505151440 | 17 | 208 | 9.7 | 14.5 | 0.00 | 0.05 | 0.00 | 56 | 1009.2 |
| 20260505150540 | 17 | 206 | 9.7 | 17.7 | 0.00 | 0.05 | 0.00 | 55 | 1009.3 |
| 20260505140541 | 17 | 183 | 8.0 | 12.9 | 0.00 | 0.05 | 0.00 | 57 | 1009.1 |
| 20260505124740 | 15 | 207 | 8.0 | 11.3 | 0.00 | 0.05 | 0.00 | 58 | 1009.8 |
| 20260505123740 | 14 | 228 | 3.2 | 4.8 | 0.00 | 0.05 | 0.00 | 57 | 1009.7 |
| 20260505122740 | 13 | 214 | 4.8 | 6.4 | 0.00 | 0.05 | 0.00 | 57 | 1009.6 |
| 20260505120740 | 12 | 231 | 4.8 | 8.0 | 0.00 | 0.05 | 0.00 | 56 | 1009.6 |
| 20260505115838 | 12 | 203 | 3.2 | 6.4 | 0.00 | 0.05 | 0.00 | 56 | 1009.8 |
| 20260505114840 | 11 | 206 | 3.2 | 6.4 | 0.00 | 0.05 | 0.00 | 54 | 1009.7 |
| 20260505113838 | 11 | 167 | 3.2 | 6.4 | 0.00 | 0.05 | 0.00 | 53 | 1009.7 |
| 20260505111840 | 10 | 202 | 3.2 | 8.0 | 0.00 | 0.05 | 0.00 | 51 | 1009.4 |
| 20260505110840 | 9 | 180 | 3.2 | 9.7 | 0.00 | 0.05 | 0.00 | 50 | 1009.6 |
| 20260505101041 | 6 | 226 | 3.2 | 6.4 | 0.00 | 0.05 | 0.00 | 44 | 1009.2 |
| 20260505100051 | 6 | 190 | 3.2 | 4.8 | 0.00 | 0.05 | 0.00 | 43 | 1009.2 |
| 20260505095040 | 6 | 189 | 1.6 | 3.2 | 0.00 | 0.05 | 0.00 | 45 | 1008.9 |
| 20260505094139 | 6 | 180 | 3.2 | 3.2 | 0.00 | 0.05 | 0.00 | 46 | 1009.0 |
| 20260505093239 | 6 | 157 | 3.2 | 3.2 | 0.00 | 0.05 | 0.00 | 47 | 1009.0 |
| 20260505092242 | 6 | 202 | 3.2 | 3.2 | 0.00 | 0.05 | 0.00 | 47 | 1008.9 |
| 20260505091340 | 7 | 202 | 1.6 | 3.2 | 0.00 | 0.05 | 0.00 | 48 | 1008.9 |
| 20260505090340 | 7 | 202 | 1.6 | 3.2 | 0.00 | 0.05 | 0.00 | 48 | 1008.9 |
| 20260505085339 | 7 | 202 | 1.6 | 3.2 | 0.00 | 0.05 | 0.00 | 48 | 1008.9 |
| 20260505084341 | 7 | 202 | 1.6 | 4.8 | 0.00 | 0.05 | 0.00 | 48 | 1008.8 |
| 20260505083338 | 7 | 202 | 1.6 | 3.2 | 0.00 | 0.05 | 0.00 | 47 | 1009.0 |
| 20260505082341 | 7 | 202 | 1.6 | 3.2 | 0.00 | 0.05 | 0.00 | 48 | 1008.9 |
| 20260505081340 | 7 | 202 | 1.6 | 3.2 | 0.00 | 0.05 | 0.00 | 48 | 1008.8 |
| 20260505075439 | 7 | 202 | 0.0 | 1.6 | 0.00 | 0.05 | 0.00 | 48 | 1008.7 |
| 20260505074440 | 7 | 211 | 1.6 | 3.2 | 0.00 | 0.05 | 0.00 | 49 | 1008.9 |
| 20260505073441 | 7 | 210 | 1.6 | 3.2 | 0.00 | 0.05 | 0.00 | 48 | 1008.9 |
| 20260505072440 | 7 | 232 | 1.6 | 6.4 | 0.00 | 0.05 | 0.00 | 48 | 1008.8 |
| 20260505072338 | 7 | 225 | 0.0 | 1.6 | 0.00 | 0.05 | 0.00 | 48 | 1008.9 |
| 20260505071340 | 7 | 202 | 1.6 | 3.2 | 0.00 | 0.05 | 0.00 | 48 | 1008.9 |
| 20260505070338 | 7 | 202 | 3.2 | 4.8 | 0.00 | 0.05 | 0.00 | 48 | 1008.8 |
| 20260505065341 | 7 | 233 | 1.6 | 4.8 | 0.00 | 0.05 | 0.00 | 47 | 1008.7 |
| 20260505064438 | 7 | 269 | 1.6 | 6.4 | 0.00 | 0.05 | 0.00 | 48 | 1008.7 |
| 20260505063440 | 7 | 280 | 0.0 | 1.6 | 0.00 | 0.05 | 0.00 | 47 | 1008.7 |
| 20260505062539 | 7 | 215 | 1.6 | 4.8 | 0.00 | 0.05 | 0.00 | 47 | 1008.6 |
| 20260505061539 | 7 | 202 | 0.0 | 1.6 | 0.00 | 0.05 | 0.00 | 46 | 1008.4 |
| 20260505055540 | 7 | 213 | 3.2 | 8.0 | 0.00 | 0.05 | 0.00 | 45 | 1008.5 |
| 20260505054540 | 7 | 241 | 1.6 | 4.8 | 0.00 | 0.05 | 0.00 | 46 | 1008.5 |
| 20260505052639 | 6 | 225 | 1.6 | 4.8 | 0.00 | 0.05 | 0.00 | 45 | 1008.4 |
| 20260505052539 | 6 | 225 | 1.6 | 4.8 | 0.00 | 0.05 | 0.00 | 46 | 1008.4 |
| 20260505051639 | 6 | 231 | 0.0 | 6.4 | 0.00 | 0.05 | 0.00 | 46 | 1008.2 |
| 20260505041739 | 7 | 202 | 1.6 | 3.2 | 0.00 | 0.05 | 0.00 | 48 | 1008.2 |
| 20260505041639 | 7 | 205 | 3.2 | 3.2 | 0.00 | 0.05 | 0.00 | 48 | 1008.1 |
| 20260505040640 | 6 | 220 | 3.2 | 4.8 | 0.00 | 0.05 | 0.00 | 48 | 1008.3 |
| 20260505035726 | 6 | 225 | 1.6 | 3.2 | 0.00 | 0.05 | 0.05 | 48 | 1008.4 |
| 20260505034624 | 6 | 232 | 1.6 | 6.4 | 0.00 | 0.05 | 0.05 | 46 | 1008.5 |
| 20260505033625 | 6 | 180 | 3.2 | 3.2 | 0.00 | 0.05 | 0.05 | 48 | 1008.2 |
| 20260505032723 | 6 | 180 | 0.0 | 1.6 | 0.00 | 0.05 | 0.05 | 48 | 1008.2 |
| 20260505031726 | 6 | 202 | 1.6 | 3.2 | 0.00 | 0.05 | 0.05 | 49 | 1008.1 |
| 20260505030824 | 7 | 202 | 1.6 | 1.6 | 0.00 | 0.05 | 0.05 | 48 | 1008.2 |
| 20260505025824 | 6 | 202 | 3.2 | 4.8 | 0.00 | 0.05 | 0.05 | 47 | 1008.2 |
| 20260505024924 | 6 | 202 | 1.6 | 3.2 | 0.00 | 0.05 | 0.05 | 47 | 1008.3 |
| 20260505023926 | 6 | 180 | 3.2 | 3.2 | 0.00 | 0.05 | 0.05 | 47 | 1008.5 |
| 20260505022924 | 7 | 157 | 1.6 | 3.2 | 0.00 | 0.05 | 0.05 | 48 | 1008.4 |
| 20260505021924 | 7 | 157 | 0.0 | 1.6 | 0.00 | 0.05 | 0.05 | 48 | 1008.5 |
| 20260505020925 | 7 | 157 | 0.0 | 0.0 | 0.00 | 0.05 | 0.05 | 49 | 1008.2 |
| 20260505015023 | 7 | 202 | 0.0 | 1.6 | 0.00 | 0.05 | 0.05 | 50 | 1008.3 |
| 20260505013223 | 8 | 224 | 1.6 | 3.2 | 0.00 | 0.05 | 0.05 | 52 | 1008.1 |
| 20260505012225 | 8 | 202 | 0.0 | 1.6 | 0.00 | 0.05 | 0.05 | 52 | 1008.2 |
| 20260505011224 | 8 | 225 | 0.0 | 1.6 | 0.00 | 0.05 | 0.05 | 52 | 1008.0 |
| 20260505010225 | 8 | 225 | 0.0 | 0.0 | 0.00 | 0.05 | 0.05 | 52 | 1008.0 |
| 20260505005224 | 8 | 225 | 0.0 | 1.6 | 0.00 | 0.05 | 0.05 | 53 | 1007.8 |
| 20260505003225 | 9 | 190 | 1.6 | 1.6 | 0.00 | 0.05 | 0.05 | 54 | 1007.6 |
| 20260505002225 | 10 | 202 | 1.6 | 3.2 | 0.00 | 0.05 | 0.05 | 56 | 1007.6 |
| 20260505000324 | 11 | 197 | 3.2 | 4.8 | 0.00 | 0.05 | 0.05 | 57 | 1007.4 |
| 20260504235423 | 11 | 160 | 1.6 | 3.2 | 0.00 | 0.05 | 0.05 | 59 | 1007.1 |
| 20260504234424 | 12 | 202 | 0.0 | 0.0 | 0.00 | 0.05 | 0.05 | 59 | 1006.9 |
| 20260504233425 | 12 | 202 | 0.0 | 0.0 | 0.00 | 0.05 | 0.05 | 60 | 1006.8 |
| 20260504232424 | 13 | 202 | 0.0 | 0.0 | 0.00 | 0.05 | 0.05 | 59 | 1006.7 |
| 20260504231424 | 13 | 270 | 0.0 | 0.0 | 0.00 | 0.05 | 0.05 | 59 | 1006.7 |
| 20260504230524 | 13 | 225 | 0.0 | 0.0 | 0.00 | 0.05 | 0.05 | 58 | 1006.6 |
| 20260504225623 | 14 | 202 | 0.0 | 0.0 | 0.00 | 0.05 | 0.05 | 57 | 1006.5 |
| 20260504223623 | 15 | 292 | 3.2 | 4.8 | 0.00 | 0.05 | 0.05 | 56 | 1006.2 |
| 20260504221625 | 14 | 315 | 1.6 | 6.4 | 0.00 | 0.05 | 0.05 | 56 | 1006.1 |
| 20260504220625 | 15 | 302 | 4.8 | 8.0 | 0.00 | 0.05 | 0.05 | 56 | 1006.2 |
| 20260504215624 | 15 | 318 | 3.2 | 6.4 | 0.00 | 0.05 | 0.05 | 56 | 1005.9 |
| 20260504215524 | 15 | 311 | 3.2 | 6.4 | 0.00 | 0.05 | 0.05 | 56 | 1005.9 |
| 20260504214524 | 15 | 315 | 4.8 | 8.0 | 0.00 | 0.05 | 0.05 | 56 | 1005.8 |
| 20260504214424 | 15 | 307 | 4.8 | 8.0 | 0.00 | 0.05 | 0.05 | 57 | 1005.8 |
| 20260504213427 | 15 | 315 | 1.6 | 3.2 | 0.00 | 0.05 | 0.05 | 57 | 1005.8 |
| 20260504212426 | 15 | 307 | 4.8 | 11.3 | 0.00 | 0.05 | 0.05 | 58 | 1005.9 |
| 20260504211425 | 15 | 315 | 1.6 | 3.2 | 0.00 | 0.05 | 0.05 | 58 | 1005.9 |
| 20260504205524 | 15 | 275 | 1.6 | 3.2 | 0.00 | 0.08 | 0.05 | 57 | 1005.7 |
| 20260504204523 | 15 | 358 | 0.0 | 1.6 | 0.00 | 0.08 | 0.05 | 58 | 1005.7 |
| 20260504203524 | 15 | 325 | 3.2 | 6.4 | 0.00 | 0.08 | 0.05 | 58 | 1005.9 |
| 20260504202526 | 15 | 287 | 3.2 | 6.4 | 0.00 | 0.08 | 0.05 | 57 | 1005.7 |
| 20260504201525 | 14 | 307 | 3.2 | 6.4 | 0.00 | 0.08 | 0.05 | 56 | 1005.8 |